User: anonymous   Login
Location: Mount Graham
(32.7016°N, 109.8912°W)
Time: 14:04:01
(UTC-07:00)
Language:

Cosmos 1340 - Orbit

View from above orbital plane
View from above orbital plane
View from above satellite
View from above satellite

Ground track
Ground track

The orbit data is extracted from the following two-line orbital elements,

1 13067U 82013A   15185.57151853  .00002033  00000-0  10253-3 0  9998
2 13067 081.1879 244.9398 0004358 061.8366 052.2449 15.16717530819530
Epoch (UTC): 04 July 2015 13:42:59
Eccentricity: 0.0004358
inclination: 81.1879°
perigee height: 513 km
apogee height: 519 km
right ascension of ascending node: 244.9398°
argument of perigee: 61.8366°
revolutions per day: 15.16717530
mean anomaly at epoch: 52.2449°
orbit number at epoch: 81953

The dashed part of the orbit path shows where the satellite is in the earth's shadow,  

DLR